Regional Weather Roundup
Issued by NWS Wakefield, VA

Home | Current Version | Previous Version | Graphics & Text | Print | Product List | Glossary On
Versions: 1 2 3 4 5 6 7 8 9 10 11 12 13 14 15 16 17 18 19 20 21 22 23 24 25 26 27 28
000
ASUS41 KAKQ 230015
RWRAKQ

REGIONAL WEATHER ROUNDUP
NATIONAL WEATHER SERVICE WAKEFIELD VA
700 PM EST WED FEB 22 2017

Note: "fair" indicates few or no clouds below 12,000 feet with no
significant weather and/or obstructions to visibility. * = Denotes
station may not report precipitation (e.g., rain,snow,etc.),
thunder or fog.

VAZ042-051-052>054-056-230100-
NORTHERN VIRGINIA

CITY           SKY/WX    TMP DP  RH WIND       PRES   REMARKS
WASH NATIONAL  MOCLDY    57  48  72 S7        29.92R
DULLES         CLOUDY    56  47  71 S6        29.90S
FORT BELVOIR   CLEAR     56  46  70 CALM      29.91R
QUANTICO       PTCLDY    51  49  92 SW3       29.93R
FREDERICKSBRG* MOCLDY    58  53  85 S6        29.91S
STAFFORD*      PTCLDY    57  53  86 CALM      29.96R
WARRENTON      PTCLDY    55  47  74 SE3       29.90S
CULPEPER*      CLOUDY    54  51  89 CALM      29.92R
MANASSAS*      CLEAR     52  46  80 CALM      29.91R
LEESBURG*      MOCLDY    61  52  72 MISG      29.91R
WINCHESTER     PTCLDY    55  46  71 S5        29.88S
FRONT ROYAL*   MOCLDY    59  48  67 CALM      29.88R
LURAY*         CLOUDY    59  54  82 SW8       29.89R
$$

VAZ048-049-060>072-079>083-230100-
CENTRAL AND SOUTH CENTRAL VIRGINIA

CITY           SKY/WX    TMP DP  RH WIND       PRES   REMARKS
RICHMOND       CLOUDY    53  53 100 S6        29.94F
CHESTERFIELD*  CLOUDY    54  39  58 S5        29.96S
PETERSBURG*    DRIZZLE   53  51  95 CALM      29.96S
HANOVER        CLOUDY    55  51  86 S5        29.96R
TAPPAHANNOCK*  CLOUDY    56  56 100 S6        29.95S
QUINTON*       CLOUDY    54  54 100 S6        29.94S
CHARLOTTSVILLE CLOUDY    58  52  80 S8        29.91R
GORDONSVILLE*  CLOUDY    56  53  88 S3        29.91R
ORANGE*        MOCLDY    55  52  88 CALM      29.93R
LOUISA*        MOCLDY    59  57  94 S6        29.91R
BUMPASS*       FAIR      55  54  95 S5        29.92S
FARMVILLE*     CLOUDY    56  56 100 S3        29.93S
CREWE*         CLOUDY    55  55 100 CALM      29.95S
FORT PICKETT*  CLOUDY   N/A N/A N/A S7        29.96S
CHASE CITY*    CLOUDY    53  52  95 CALM      29.96R
CLARKSVILLE*   MOCLDY    54  54 100 CALM      29.94F
SOUTH HILL*    CLOUDY    54  54 100 CALM      30.01S
LAWRENCEVILLE* MOCLDY    54  53  97 CALM      29.95F
EMPORIA*       DRIZZLE   52  52 100 CALM      29.97S
$$

VAZ088>098-230100-
SOUTHEAST VIRGINIA

CITY           SKY/WX    TMP DP  RH WIND       PRES   REMARKS
NORFOLK        CLOUDY    58  50  75 E5        29.96F
VIRGINIA BEACH CLOUDY    58  49  72 NE3       29.96S
NORFOLK NAVAL  CLOUDY    58  50  75 E7        29.97F
WEST POINT*    CLOUDY    55  54  94 SE3       29.96F
SALUDA*        CLOUDY    55  55 100 S6        29.95F
NEWPORT NEWS   NOT AVBL
LANGLEY AFB    LGT RAIN  54  54 100 S5        29.96S
FORT EUSTIS    MOCLDY    55  52  90 CALM      29.94S
WILLIAMSBURG*  CLOUDY    57  55  94 CALM      29.98R
HR EXEC AP*    MOCLDY    57  50  77 CALM      29.94F
FRANKLIN*      CLOUDY    55  52  89 CALM      29.96F
US460-WAKEFLD  LGT RAIN  54  54 100 CALM      29.96F
$$

VAZ020-022-025-037-045-230100-
WEST CENTRAL AND SOUTHWEST VIRGINIA

CITY           SKY/WX    TMP DP  RH WIND       PRES   REMARKS
STAUNTON*      CLOUDY    55  50  85 S5        29.93S
WAYNESBORO*    CLOUDY    55  50  81 W6        29.92R
HOT SPRINGS VA RAIN      50  50 100 W10       29.95R VSB 1/4
LYNCHBURG      CLOUDY   N/A N/A N/A SW6       29.95S HAZE
DANVILLE       LGT RAIN  54  54 100 NE5       29.95S FOG
SOUTH BOSTON*  MOCLDY    53  52  95 N3        29.95S
MARTINSVILLE   DRIZZLE   53  52  97 CALM      29.97R
ROANOKE        MOCLDY    54  52  93 CALM      29.96R
BLACKSBURG     CLOUDY    51  51  99 CALM      29.98R FOG
DUBLIN*        CLOUDY    52  52 100 CALM      29.96S FOG
MARION*        CLOUDY    52  51  96 CALM      29.97S FOG
HILLSVILLE*    CLOUDY    52  52 100 SE5       29.95F
RICHLANDS*     FAIR      53  52  97 SE3       29.93S
WISE*          CLOUDY    54  54 100 CALM      29.93S
ABINGDON*      CLOUDY    55  55  99 E3        29.93S
$$

MDZ021>025-VAZ099-100-230100-
SOUTHERN MARYLAND AND THE DELMARVA PENINSULA

CITY           SKY/WX    TMP DP  RH WIND       PRES   REMARKS
PATUXENT RIVER MOCLDY    56  54  93 S9        29.93S
BAY BRIDGE APT CLEAR     50  46  87 S6        29.92S
LEONARDTOWN    PTCLDY    55  52  88 S5        29.94S
DOVER          PTCLDY    47  47 100 S7        29.92S
GEORGETOWN     PTCLDY    53  49  86 SW6       29.94S
EASTON         CLEAR     54  48  82 S5        29.96F
CAMBRIDGE      PTCLDY    52  48  87 S6        29.94S
SALISBURY      CLOUDY    56  52  86 S7        29.95S
OCEAN CITY     PTCLDY    48  46  93 CALM      29.96R
WALLOPS ISLAND CLOUDY    56  56 100 SW8       29.98R
ACCOMACK*      CLOUDY    56  55  97 S6        29.96F
$$

NCZ012>017-030>032-230100-
NORTH CENTRAL AND EASTERN NORTH CAROLINA

CITY           SKY/WX    TMP DP  RH WIND       PRES   REMARKS
ROANOKE RAPIDS CLOUDY    57  52  82 CALM      29.95S
RALEIGH        CLOUDY    64  53  67 N5        29.94R
ELIZABETH CITY CLOUDY    57  51  80 E6        29.96S
AHOSKIE*       NOT AVBL
EDENTON*       CLOUDY    63  52  67 E3        29.96S
CURRITUCK*     CLOUDY    59  49  68 CALM      29.97S
KILL DEVIL HLS NOT AVBL
MANTEO         CLOUDY    59  49  69 SE7       29.98R
CAPE HATTERAS  MOCLDY    66  54  65 S6        29.97S
TARBORO*       NOT AVBL
GOLDSBORO      MOCLDY    66  56  68 SE3       29.92R
WASHINGTON     CLOUDY    63  53  69 SE5       29.95S
GREENVILLE     CLOUDY    66  54  63 S6        29.96S
NEW BERN       CLOUDY    59  53  80 CALM      29.97R
WILMINGTON     CLOUDY    65  54  67 SE3       29.94S
$$

VAZ048-230100-
ELSEWHERE

CITY           SKY/WX    TMP DP  RH WIND       PRES   REMARKS
HARRISBURG PA  MOCLDY    51  42  71 SE6       29.88S
BALTIMORE      CLOUDY    51  46  83 CALM      29.91R
ANNAPOLIS      CLEAR     51  47  86 S5        29.92S
ANDREWS AFB    CLEAR     55  46  73 S5        29.91R
PHILADELPHIA   MOCLDY    53  43  68 S6        29.92F
HENDERSON NC   CLOUDY    52  50  93 CALM      29.95S
GREENSBORO     CLOUDY    56  56 100 CALM      29.94S
ROCKY MOUNT    PTCLDY    63  51  65 NE3       29.94S
$$

VAZ100-230100-
MARINE

STATION/POSITION TIME  TEMP    WIND        PRES    WAVE   SWELL
                       AIR SEA DIR/SP/G            HT/PER HT/PER
                 (UTC) (F)     (DEG/KT/KT) (MB)    (FT/S) (FT/S)
CAPE MAY NJ      2336   49 43  220/  4/  4 1013.4R
LEWES DE         2348   56 43  250/  3/  4 1013.6R
OCEAN-CITY-INLET 2348   46 44  210/  7/  8 1014.7R
WACHAPREAGUE VA  2336   55 50  210/  4/  5 1014.9F
THOMAS POINT MD  0000   48 44  180/  7/  8   N/A
GOOSES REEF MD   0000   47 44  170/ 10/ 10 1013.8    1
COVE POINT MD    2336   46     180/  7/  7 1014.0F
SOLOMONS ISLAND  2348          200/  8/ 11   N/A
BISHOPS HEAD MD  2348   51 48  180/ 12/ 13 1014.1S
PINEY POINT MD   2342          180/  6/  6   N/A
POTOMAC MD       0000   47 45  150/  4/  4 1013.0
CAMBRIDGE MD     2336   52 42  110/  4/  6 1012.8F
LEWISETTA VA     2348   56 48  240/  4/  6 1013.5R
RAPPAHANNOCK LGT 2342          150/ 10/ 11 1015.2S
YORK RVR RNG VA  2336   50     140/ 10/ 12 1014.0S
YORKTOWN VA      2348      46  120/  3/  3 1014.4R
JAMESTOWN VA     0000   52 50  140/  2/  2   N/A     0
DOMINION TERM VA 2348   55      90/  7/  9 1014.7S
KIPTOPEKE VA     2348      47   90/  5/  6   N/A
CHES BAY BRIDGE  2348   56 47   80/ 10/ 11 1014.7R
CAPE HENRY VA    2348   56      70/  5/  6   N/A
WILLOUBY STN VA  2348   55     100/  3/  4 1015.6F
S CRANEY ISL VA  2348   56      80/  6/  7 1014.4F
CAPE HENRY BUOY  2342      49                N/A     3/10   2/11
OFFSHORE WE BUOY 2351      48                N/A     3/ 9   2/11
64NM E OF VA BCH 2350   58 55  170/  6/  6 1014.9S   3/11   3/11
DUCK PIER NC     2336   53 48  140/  9/  9 1014.3R
44100 DUCK FRF   2335      48                N/A     3/11   2/11
44056 DUCK FRF   2330      51                N/A     3/ 9   2/11
OREGON INLET NC  2348          110/  5/  8   N/A
HATTERAS NC      2348   66 60  140/  2/  4 1014.6R
DIAMOND SHLS NC  2350   68 75  150/  8/ 12 1015.1R   3/ 9   3/ 9
CAPE LOOKOUT NC  0000   65     150/  6/  6 1014.3R
$$




USA.gov is the U.S. government's official web portal to all federal, state and local government web resources and services.